This demonstration page uses our WeatherBlox Daily Observations layout. Learn more.

Left ArrowRight Arrow

Hourly Observations for September 16, 2021

Temp ( °F °C ) Dew Point ( °F °C ) Humidity (%) Winds ( mph kmh ) Pressure ( in mb ) Visibility ( mi km ) Precip ( " mm )
12:15 am 00:15 Mostly Cloudy 70 21 68 20 94 94 ESE 5 7 30.06 1018 10 16 N/A
12:35 am 00:35 Cloudy 68 20 68 20 100 100 N N/A 30.06 1018 10 16 N/A
12:55 am 00:55 Cloudy 70 21 70 21 100 100 N N/A 30.05 1018 10 16 N/A
1:15 am 01:15 Partly Cloudy 70 21 70 21 100 100 NW 5 7 30.06 1018 10 16 N/A
1:35 am 01:35 Clear 68 20 68 20 100 100 NW 5 7 30.06 1018 10 16 N/A
1:55 am 01:55 Clear 70 21 70 21 100 100 N N/A 30.06 1018 10 16 N/A
2:15 am 02:15 Clear 70 21 70 21 100 100 N N/A 30.06 1018 10 16 N/A
2:35 am 02:35 Clear 70 21 70 21 100 100 N 3 6 30.06 1018 10 16 N/A
2:55 am 02:55 Mostly Cloudy 70 21 70 21 100 100 N N/A 30.07 1018 10 16 N/A
3:15 am 03:15 Mostly Cloudy 70 21 70 21 100 100 NNE 6 9 30.07 1018 10 16 N/A
3:35 am 03:35 Mostly Cloudy 70 21 70 21 100 100 NNE 6 9 30.06 1018 10 16 N/A
3:55 am 03:55 Mostly Cloudy 70 21 70 21 100 100 NNE 5 7 30.07 1018 7 11 N/A
4:15 am 04:15 Mostly Cloudy 70 21 70 21 100 100 NNE 5 7 30.07 1018 7 11 N/A
4:35 am 04:35 Partly Cloudy 68 20 68 20 100 100 NNE 6 9 30.07 1018 10 16 N/A
4:55 am 04:55 Partly Cloudy 68 20 68 20 100 100 ENE 3 6 30.07 1018 10 16 N/A
5:15 am 05:15 Mostly Cloudy 68 20 68 20 100 100 N N/A 30.07 1018 10 16 N/A
5:35 am 05:35 Mostly Cloudy 68 20 68 20 100 100 N 5 7 30.08 1019 10 16 N/A
5:55 am 05:55 Partly Cloudy 68 20 68 20 100 100 N N/A 30.09 1019 10 16 N/A
6:15 am 06:15 Mostly Cloudy 68 20 68 20 100 100 N 6 9 30.09 1019 10 16 N/A
6:35 am 06:35 Mostly Cloudy 68 20 68 20 100 100 N 6 9 30.09 1019 10 16 N/A
6:55 am 06:55 Mostly Cloudy with Mist and Fog 68 20 68 20 100 100 NNE 7 11 30.11 1020 5 8 N/A
7:15 am 07:15 Cloudy with Mist and Fog 68 20 68 20 100 100 NNE 8 13 30.12 1020 3 5 N/A
7:35 am 07:35 Cloudy with Mist and Fog 68 20 68 20 100 100 NNE 7 11 30.12 1020 3 4 N/A
7:55 am 07:55 Cloudy with Mist and Fog 70 21 70 21 100 100 NNE 7 11 30.13 1020 3 5 N/A
8:15 am 08:15 Cloudy with Mist and Fog 70 21 70 21 100 100 NNE 6 9 30.14 1021 3 5 N/A
8:35 am 08:35 Cloudy with Mist and Fog 70 21 70 21 100 100 NE 3 6 30.15 1021 3 5 N/A
8:55 am 08:55 Cloudy with Mist and Fog 70 21 70 21 100 100 NNE 5 7 30.15 1021 4 6 N/A
9:15 am 09:15 Cloudy with Mist and Fog 72 22 70 21 94 94 NNE 7 11 30.15 1021 5 8 N/A
9:35 am 09:35 Mostly Cloudy 72 22 70 21 94 94 NNE 7 11 30.15 1021 7 11 N/A
9:55 am 09:55 Mostly Cloudy 73 23 70 21 89 89 NNE 8 13 30.16 1021 10 16 N/A
10:15 am 10:15 Mostly Cloudy 73 23 70 21 89 89 NNE 7 11 30.16 1021 10 16 N/A
10:35 am 10:35 Cloudy 73 23 70 21 89 89 NE 7 11 30.16 1021 10 16 N/A
10:55 am 10:55 Cloudy 73 23 70 21 89 89 NE 7 11 30.16 1021 10 16 N/A
11:15 am 11:15 Cloudy 75 24 70 21 83 83 N 3 6 30.16 1021 10 16 N/A
11:35 am 11:35 Mostly Cloudy 77 25 70 21 79 79 NNE 6 9 30.15 1021 10 16 N/A
11:55 am 11:55 Partly Cloudy 77 25 70 21 79 79 NNE 6 9 30.15 1021 10 16 N/A
12:15 pm 12:15 Partly Cloudy 77 25 70 21 79 79 N 9 15 30.14 1021 10 16 N/A
12:35 pm 12:35 Mostly Cloudy 77 25 72 22 83 83 NE 8 13 30.14 1021 10 16 N/A
12:55 pm 12:55 Mostly Cloudy 79 26 72 22 79 79 NE 9 15 30.14 1021 10 16 N/A
1:15 pm 13:15 Cloudy 81 27 72 22 74 74 NNE 7 11 30.14 1021 10 16 N/A
1:35 pm 13:35 Cloudy 79 26 72 22 79 79 NE 7 11 30.14 1021 10 16 N/A
1:55 pm 13:55 Mostly Cloudy 79 26 72 22 79 79 ENE 5 7 30.13 1020 10 16 N/A
2:15 pm 14:15 Mostly Cloudy 79 26 72 22 79 79 NNE 7 11 30.13 1020 10 16 N/A
2:35 pm 14:35 Mostly Cloudy 81 27 72 22 74 74 NNE 7 11 30.12 1020 10 16 N/A
2:55 pm 14:55 Mostly Cloudy 81 27 72 22 74 74 N 6 9 30.11 1020 10 16 N/A
3:15 pm 15:15 Mostly Cloudy 81 27 72 22 74 74 NNE 8 13 30.11 1020 10 16 N/A
3:35 pm 15:35 Mostly Cloudy 81 27 72 22 74 74 N 9 15 30.10 1019 10 16 N/A
3:55 pm 15:55 Mostly Cloudy with Nearby Thunderstorms 81 27 72 22 74 74 NNE 8 13 30.10 1019 10 16 N/A
4:15 pm 16:15 Mostly Cloudy with Nearby Thunderstorms 81 27 72 22 74 74 N 8 13 30.10 1019 10 16 N/A
4:35 pm 16:35 Cloudy 81 27 72 22 74 74 NNE 9 15 30.11 1020 10 16 N/A
4:55 pm 16:55 Cloudy 77 25 70 21 79 79 E 6 9 30.12 1020 10 16 N/A
5:15 pm 17:15 Cloudy 73 23 70 21 89 89 ENE 7 11 30.14 1021 10 16 N/A
5:35 pm 17:35 Cloudy 73 23 68 20 83 83 ENE 6 9 30.15 1021 10 16 N/A
5:55 pm 17:55 Cloudy 73 23 68 20 83 83 N N/A 30.15 1021 10 16 N/A
6:15 pm 18:15 Cloudy with Light Rain 73 23 68 20 83 83 SW 3 6 30.15 1021 10 16 N/A
6:35 pm 18:35 Partly Cloudy with Light Rain 73 23 70 21 89 89 S 3 6 30.15 1021 10 16 N/A
6:55 pm 18:55 Mostly Cloudy with Light Rain 72 22 72 22 100 100 S 5 7 30.16 1021 10 16 N/A
7:15 pm 19:15 Cloudy with Light Rain 72 22 72 22 100 100 N N/A 30.17 1022 10 16 N/A
7:35 pm 19:35 Cloudy with Rain 72 22 70 21 94 94 N N/A 30.17 1022 10 16 N/A
7:55 pm 19:55 Mostly Cloudy with Nearby Thunderstorms 72 22 70 21 94 94 N N/A 30.18 1022 10 16 N/A
8:15 pm 20:15 Cloudy 72 22 72 22 100 100 N N/A 30.19 1022 10 16 N/A
8:35 pm 20:35 Cloudy 72 22 72 22 100 100 N N/A 30.20 1023 10 16 N/A
8:55 pm 20:55 Cloudy 72 22 72 22 100 100 NNE 5 7 30.20 1023 10 16 N/A
9:15 pm 21:15 Cloudy 72 22 72 22 100 100 NNE 3 6 30.20 1023 10 16 N/A
9:35 pm 21:35 Mostly Cloudy 72 22 72 22 100 100 N N/A 30.19 1022 10 16 N/A
9:55 pm 21:55 Mostly Cloudy 72 22 72 22 100 100 N N/A 30.20 1023 10 16 N/A
10:15 pm 22:15 Mostly Cloudy 72 22 72 22 100 100 NNE 3 6 30.20 1023 10 16 N/A
10:35 pm 22:35 Cloudy 72 22 72 22 100 100 NE 6 9 30.19 1022 10 16 N/A
10:55 pm 22:55 Cloudy 72 22 72 22 100 100 NNE 6 9 30.19 1022 10 16 N/A
11:15 pm 23:15 Cloudy 72 22 72 22 100 100 NE 6 9 30.19 1022 10 16 N/A
11:35 pm 23:35 Cloudy 72 22 72 22 100 100 N N/A 30.19 1022 10 16 N/A
11:55 pm 23:55 Cloudy 72 22 72 22 100 100 ENE 6 9 30.19 1022 10 16 N/A

Powered by AerisWeather